VK4RM-13 Weather Reports


time (UTC)temp
C
wind
direction
speed
KPH
gust
KPH
rain 1hr
cm
rain 24hr
cm
rain mn
cm
humidity
%
barometer
mb
20260505223636 22 329 0.0 3.2 0.00 0.00 0.00 82 995.6
20260505222636 22 87 0.0 3.2 0.00 0.00 0.00 84 995.5
20260505221637 21 75 0.0 0.0 0.00 0.00 0.00 86 995.6
20260505220637 21 75 0.0 0.0 0.00 0.00 0.00 88 995.6
20260505215637 20 90 0.0 0.0 0.00 0.00 0.00 90 995.6
20260505214637 20 76 0.0 0.0 0.00 0.00 0.00 93 995.6
20260505213637 20 37 0.0 0.0 0.00 0.00 0.00 94 995.5
20260505212637 19 37 0.0 0.0 0.00 0.00 0.00 93 995.4
20260505211637 19 37 0.0 0.0 0.00 0.00 0.00 93 995.3
20260505210637 19 37 0.0 0.0 0.00 0.00 0.00 94 995.2
20260505205637 19 37 0.0 3.2 0.00 0.00 0.00 94 995.1
20260505204638 18 36 1.6 6.4 0.00 0.00 0.00 95 995.0
20260505203637 18 312 0.0 0.0 0.00 0.00 0.00 95 994.9
20260505202637 18 312 0.0 0.0 0.00 0.00 0.00 94 994.9
20260505201637 18 312 0.0 0.0 0.00 0.00 0.00 94 994.7
20260505200637 18 312 0.0 0.0 0.00 0.00 0.00 94 994.7
20260505195640 18 312 0.0 0.0 0.00 0.00 0.00 94 994.6
20260505194637 18 312 0.0 0.0 0.00 0.00 0.00 94 994.6
20260505193637 18 312 0.0 0.0 0.00 0.00 0.00 94 994.5
20260505192637 18 312 0.0 0.0 0.00 0.00 0.00 93 994.3
20260505191637 18 312 0.0 0.0 0.00 0.00 0.00 93 994.2
20260505190637 18 312 0.0 0.0 0.00 0.00 0.00 94 994.1
20260505185637 18 312 0.0 0.0 0.00 0.00 0.00 93 994.0
20260505184637 18 312 0.0 0.0 0.00 0.00 0.00 93 994.0
20260505183637 19 312 0.0 0.0 0.00 0.00 0.00 93 994.0
20260505182638 19 312 0.0 1.6 0.00 0.00 0.00 93 994.0
20260505181637 19 309 0.0 0.0 0.00 0.00 0.00 94 994.0
20260505180637 19 309 0.0 0.0 0.00 0.00 0.00 94 993.9
20260505175637 19 309 0.0 0.0 0.00 0.00 0.00 94 994.0
20260505174637 19 309 0.0 0.0 0.00 0.00 0.00 94 994.1
20260505173637 19 309 0.0 0.0 0.00 0.00 0.00 94 994.1
20260505172637 19 309 0.0 0.0 0.00 0.00 0.00 94 994.2
20260505171637 18 309 0.0 0.0 0.00 0.00 0.00 94 994.3
20260505170637 18 309 0.0 0.0 0.00 0.00 0.00 93 994.3
20260505165637 18 309 0.0 0.0 0.00 0.03 0.00 93 994.2
20260505164637 18 309 0.0 0.0 0.00 0.03 0.00 93 994.3
20260505163637 18 307 0.0 0.0 0.00 0.03 0.00 93 994.3
20260505162641 19 307 0.0 0.0 0.00 0.03 0.00 93 994.4
20260505161637 19 307 0.0 0.0 0.00 0.03 0.00 93 994.5
20260505160637 19 307 0.0 0.0 0.00 0.03 0.00 92 994.6
20260505152637 20 307 0.0 0.0 0.00 0.03 0.00 92 994.9
20260505151637 20 307 0.0 0.0 0.00 0.03 0.00 92 995.0
20260505150637 20 307 0.0 0.0 0.00 0.03 0.00 92 995.1
20260505140637 20 307 0.0 0.0 0.00 0.03 0.00 92 995.4
20260505123638 20 307 0.0 0.0 0.00 0.03 0.00 91 996.1
20260505122638 20 307 0.0 0.0 0.00 0.03 0.00 91 996.0
20260505121638 20 307 0.0 0.0 0.00 0.03 0.00 91 996.2
20260505115638 20 307 0.0 0.0 0.00 0.03 0.00 90 996.3
20260505114638 20 307 0.0 0.0 0.00 0.03 0.00 91 996.2
20260505112638 20 307 0.0 0.0 0.00 0.03 0.00 90 996.2
20260505111638 20 307 0.0 0.0 0.00 0.03 0.00 90 996.3
20260505110639 20 307 0.0 0.0 0.00 0.03 0.00 90 996.4
20260505095638 19 307 0.0 0.0 0.00 0.03 0.00 88 996.0
20260505094638 20 307 0.0 0.0 0.00 0.03 0.00 88 995.9
20260505092638 20 307 0.0 0.0 0.00 0.03 0.00 87 995.7
20260505091638 20 307 0.0 0.0 0.00 0.03 0.00 86 995.6
20260505085638 20 307 0.0 0.0 0.00 0.03 0.00 85 995.3
20260505084638 20 307 0.0 0.0 0.00 0.03 0.00 85 995.2
20260505082638 21 307 0.0 0.0 0.00 0.03 0.00 84 994.9
20260505081638 21 307 0.0 0.0 0.00 0.03 0.00 84 994.8
20260505075638 21 307 0.0 0.0 0.00 0.03 0.00 84 994.5
20260505074638 21 307 0.0 0.0 0.00 0.03 0.00 83 994.3
20260505072638 22 307 0.0 0.0 0.00 0.03 0.00 81 994.2
20260505071638 23 307 0.0 0.0 0.00 0.03 0.00 79 994.1
20260505065638 24 307 0.0 0.0 0.00 0.03 0.00 74 993.9
20260505064638 25 307 0.0 0.0 0.00 0.03 0.00 66 993.7
20260505062638 26 288 0.0 3.2 0.00 0.03 0.03 64 993.6
20260505061638 26 288 0.0 6.4 0.00 0.03 0.03 66 993.5
20260505055638 26 345 1.6 8.0 0.00 0.03 0.03 64 993.4
20260505054638 26 331 1.6 6.4 0.00 0.03 0.03 66 993.3
20260505052639 26 300 1.6 3.2 0.00 0.03 0.03 65 993.2
20260505051638 26 349 3.2 11.3 0.00 0.03 0.03 65 993.3
20260505041638 28 334 3.2 11.3 0.00 0.03 0.03 47 993.2
20260505040638 29 20 1.6 11.3 0.00 0.03 0.03 47 993.3
20260505035638 28 303 4.8 11.3 0.00 0.03 0.03 47 993.4
20260505034638 28 46 3.2 12.9 0.00 0.03 0.03 48 993.5
20260505033639 28 351 1.6 6.4 0.00 0.03 0.03 51 993.5
20260505032639 29 342 3.2 11.3 0.00 0.03 0.03 51 993.4
20260505031639 28 325 4.8 12.9 0.00 0.03 0.03 53 993.5
20260505030639 28 272 1.6 9.7 0.00 0.03 0.03 52 993.7
20260505025639 28 306 1.6 8.0 0.00 0.03 0.03 52 993.9
20260505024639 28 9 1.6 6.4 0.00 0.03 0.03 54 994.1
20260505023639 28 9 1.6 3.2 0.00 0.03 0.03 57 994.2
20260505022639 27 328 4.8 9.7 0.00 0.03 0.03 54 994.4
20260505021639 28 349 1.6 9.7 0.00 0.03 0.03 56 994.7
20260505020639 28 22 1.6 6.4 0.00 0.03 0.03 55 994.8
20260505015639 27 312 0.0 3.2 0.00 0.03 0.03 60 994.8
20260505014639 27 346 1.6 3.2 0.00 0.03 0.03 59 994.9
20260505013639 27 5 0.0 6.4 0.00 0.03 0.03 58 995.1
20260505012639 26 61 0.0 8.0 0.00 0.03 0.03 61 995.2
20260505011639 26 321 1.6 9.7 0.00 0.03 0.03 65 995.4
20260505010641 26 290 0.0 1.6 0.00 0.03 0.03 66 995.2
20260505005639 26 319 0.0 8.0 0.00 0.03 0.03 64 995.6
20260505004639 26 287 0.0 6.4 0.00 0.03 0.03 66 996.0
20260505003639 26 288 0.0 1.6 0.00 0.03 0.03 66 996.0
20260505002639 26 327 0.0 6.4 0.00 0.03 0.03 63 995.8
20260505001639 26 325 3.2 8.0 0.00 0.03 0.03 64 996.1
20260505000639 26 311 0.0 11.3 0.00 0.03 0.03 67 996.3
20260504235639 25 319 1.6 6.4 0.00 0.03 0.03 70 996.1
20260504234639 25 300 0.0 8.0 0.00 0.03 0.03 71 996.4
20260504233639 25 11 0.0 3.2 0.00 0.03 0.03 73 996.5
20260504232639 24 355 0.0 6.4 0.00 0.03 0.03 74 996.3
20260504231639 23 325 0.0 0.0 0.00 0.03 0.03 77 996.4
20260504230639 23 331 0.0 3.2 0.00 0.03 0.03 77 996.4
20260504225639 23 331 0.0 8.0 0.00 0.03 0.03 81 996.5
20260504224639 22 327 0.0 3.2 0.00 0.03 0.03 84 996.5